Tracking 29892 objects as of 21-Nov-2024
HD Live streaming from Space Station
objects crossing your sky now

STARLINK-2161

Track STARLINK-2161 now!
10-day predictions
STARLINK-2161 is classified as:


NORAD ID: 47747
Int'l Code: 2021-017AB
Perigee: 553.3 km
Apogee: 555.4 km
Inclination: 53.1 °
Period: 95.6 minutes
Semi major axis: 6925 km
RCS: Unknown
Launch date: March 4, 2021
Source: United States (US)
Launch site: AIR FORCE EASTERN TEST RANGE (AFETR)
Your satellite tracking list
Your tracking list is empty




NASA's NSSDC Master Catalog

Two Line Element Set (TLE):
1 47747U 21017AB  24325.55356170  .00001868  00000-0  14427-3 0  9992
2 47747  53.0540 170.0972 0001524  85.0237 275.0926 15.06398018205774
Source of the keplerian elements: AFSPC